Watertown, NY

3:09 PM EST on November 22, 2019 (GMT -0500)
Watertown International

Weather History for KART - September, 2019

Change the Weather History Date:

Friday, September 13, 2019

  Actual Average Record
Temperature  
Mean Temperature 56 °F 61 °F  
Max Temperature 73 °F 72 °F 89 °F (1951)
Min Temperature 38 °F 50 °F 32 °F (1964)
Degree Days  
Heating Degree Days 9 6  
Month to date heating degree days 68 54  
Since 1 July heating degree days 97 126  
Cooling Degree Days 0 1  
Month to date cooling degree days 8 23  
Year to date cooling degree days 329 347  
Growing Degree Days 6 (Base 50)    
Moisture  
Dew Point 46 °F    
Average Humidity 71    
Maximum Humidity 100    
Minimum Humidity 41    
Precipitation  
Precipitation 0.00 in 0.12 in 1.32 in (2006)
Month to date precipitation 2.21 1.43  
Year to date precipitation 30.30 23.23  
Sea Level Pressure  
Sea Level Pressure 30.30 in    
Wind  
Wind Speed 10 mph (SE)    
Max Wind Speed 21 mph    
Max Gust Speed 36 mph    
Visibility 10 miles    
Events      
T = Trace of Precipitation, MM = Missing Value Source: NWS Daily Summary

Daily Weather History Graph

Daily Weather History Graph

Search for Another Location

Airport or City:

Astronomy

Sep. 13, 2019 Rise Set
Actual Time 6:40 AM EDT 7:18 PM EDT
Civil Twilight 6:11 AM EDT 7:47 PM EDT
Nautical Twilight 5:37 AM EDT 8:21 PM EDT
Astronomical Twilight 5:01 AM EDT 8:57 PM EDT
Moon 7:33 PM EDT (9/13) 5:51 AM EDT (9/13)
Length of Visible Light 13h 35m
Length of Day
12h 37m
Full, 100% of the Moon is Illuminated
Sep 13
Full
Sep 14
Full
Sep 21
Last Quarter
Sep 28
New
Oct 5
First Quarter

Hourly Weather History & Observations

Time (EDT) Temp. Windchill Dew Point Humidity Pressure Visibility Wind Dir Wind Speed Gust Speed Precip Events Conditions
12:56 AM 43.0 °F - 41.0 °F 93% 30.38 in 10.0 mi Calm Calm - N/A   Clear
1:56 AM 42.1 °F 39.2 °F 41.0 °F 96% 30.38 in 10.0 mi East 4.6 mph - N/A   Clear
2:56 AM 44.1 °F 40.8 °F 42.1 °F 93% 30.38 in 10.0 mi East 5.8 mph - N/A   Clear
3:56 AM 41.0 °F 38.0 °F 39.9 °F 96% 30.37 in 10.0 mi ENE 4.6 mph - N/A   Clear
4:56 AM 39.9 °F - 39.0 °F 97% 30.38 in 10.0 mi Calm Calm - N/A   Clear
5:56 AM 39.0 °F 35.7 °F 36.0 °F 89% 30.40 in 9.0 mi East 4.6 mph - N/A   Clear
6:56 AM 42.1 °F 37.1 °F 39.9 °F 92% 30.42 in 10.0 mi East 8.1 mph - N/A   Clear
7:56 AM 46.9 °F - 44.1 °F 90% 30.43 in 10.0 mi East 5.8 mph - N/A   Clear
8:56 AM 54.0 °F - 46.0 °F 75% 30.42 in 10.0 mi ENE 9.2 mph - N/A   Clear
9:56 AM 59.0 °F - 46.9 °F 64% 30.41 in 10.0 mi East 9.2 mph - N/A   Clear
10:56 AM 66.0 °F - 48.0 °F 52% 30.38 in 10.0 mi South 8.1 mph - N/A   Clear
11:56 AM 68.0 °F - 48.9 °F 50% 30.37 in 10.0 mi North - - N/A   Clear
12:56 PM 70.0 °F - 48.0 °F 46% 30.35 in 10.0 mi ESE 12.7 mph 18.4 mph N/A   Clear
1:56 PM 71.1 °F - 46.9 °F 42% 30.32 in 10.0 mi SE 11.5 mph 17.3 mph N/A   Clear
2:56 PM 72.0 °F - 50.0 °F 46% 30.30 in 10.0 mi SSE 10.4 mph - N/A   Clear
3:56 PM 72.0 °F - 52.0 °F 49% 30.28 in 10.0 mi SSE 12.7 mph 18.4 mph N/A   Partly Cloudy
4:56 PM 70.0 °F - 52.0 °F 53% 30.26 in 10.0 mi SSE 9.2 mph 20.7 mph N/A   Overcast
5:56 PM 70.0 °F - 51.1 °F 51% 30.22 in 10.0 mi SSE 9.2 mph - N/A   Overcast
6:56 PM 68.0 °F - 50.0 °F 52% 30.20 in 10.0 mi SSE 11.5 mph 20.7 mph N/A   Mostly Cloudy
7:56 PM 68.0 °F - 48.9 °F 50% 30.18 in 10.0 mi SSE 13.8 mph 28.8 mph N/A   Overcast
8:56 PM 66.9 °F - 48.9 °F 52% 30.17 in 10.0 mi South 9.2 mph 21.9 mph N/A   Overcast
9:56 PM 66.0 °F - 50.0 °F 56% 30.13 in 10.0 mi South 17.3 mph 28.8 mph N/A   Partly Cloudy
10:56 PM 64.9 °F - 50.0 °F 58% 30.11 in 10.0 mi South 11.5 mph 26.5 mph N/A   Clear
11:56 PM 64.9 °F - 50.0 °F 58% 30.07 in 10.0 mi South 16.1 mph 32.2 mph N/A   Clear